Regional Weather Roundup
Issued by NWS

Home | Current Version | Previous Version | Text Only | Print | Product List | Glossary On
Versions: 1 2 3 4 5 6 7 8 9 10 11 12 13 14 15 16 17 18 19 20 21 22 23 24 25 26 27
000
ASUS45 KBOU 010607
RWRCO

WEATHER ROUNDUP FOR COLORADO
NATIONAL WEATHER SERVICE DENVER/BOULDER CO
1200 AM MDT THU SEP 01 2016

NOTE: "FAIR" INDICATES FEW OR NO CLOUDS BELOW 12000 FEET WITH NO
SIGNIFICANT WEATHER AND/OR OBSTRUCTIONS TO VISIBILITY.

COZ001>005-013-030-031-010700-
...NORTHWEST COLORADO...

CITY           SKY/WX    TMP DP  RH WIND       PRES   REMARKS
CRAIG          FAIR      54  38  54 E5        30.22R
HAYDEN         FAIR      61  30  31 E8        30.24R
MEEKER         FAIR      60  40  47 VRB3G16   30.25R
MOUNT WERNER   NOT AVBL
STEAMBOAT SPGS FAIR      56  34  44 CALM      30.28R
WALDEN         FAIR      50  37  62 S6        30.39R
$$

COZ006>008-011-010700-
...WEST CENTRAL VALLEYS...

CITY           SKY/WX    TMP DP  RH WIND       PRES   REMARKS
GRAND JUNCTION FAIR      75  40  28 SE6       30.11R
MONTROSE       FAIR      66  46  48 SE12      30.22S
EAGLE          FAIR      61  41  48 E3        30.29R
RIFLE          FAIR      65  43  44 SE5       30.18R
DELTA          FAIR      70  43  38 NE6       30.18R
NUCLA          MOCLDY   N/A N/A N/A E9        30.26S
$$

COZ017>023-064>068-010700-
...SOUTHWEST COLORADO...

CITY           SKY/WX    TMP DP  RH WIND       PRES   REMARKS
DURANGO        FAIR      57  47  69 CALM      30.31R
CORTEZ         MOCLDY    60  52  74 CALM      30.24R
PAGOSA SPRINGS MOCLDY    56  53  89 CALM      30.40S
TELLURIDE      FAIR      54  47  77 SE7       30.50S
WOLF CREEK PAS LGT RAIN  45  37  76 CALM      30.71F
$$

COZ009-010-012-014-032>034-037-058>063-010700-
...CENTRAL COLORADO...

CITY           SKY/WX    TMP DP  RH WIND       PRES   REMARKS
ASPEN          FAIR      55  40  56 SW8       30.35F
BUENA VISTA    FAIR      52  49  88 CALM      30.45S
COPPER MTN     FAIR      52  41  66 S13       30.68F
BERTHOUD PASS  FAIR      39  28  65 W12       30.70F
COTTONWOOD PAS FAIR      54  45  71 W6        30.56S
GUNNISON       FAIR      57  45  62 N9        30.41R
KREMMLING      FAIR      54  41  62 CALM      30.36R
LEADVILLE      FAIR      45  40  82 NE5       30.54S
MONARCH PASS   FOG       43  43 100 NE10      30.79R VSB<1/4
SALIDA         FAIR      60  51  73 SE5       30.49R
SUNLIGHT       FAIR      59  32  36 E5        30.61S
WILKERSON PASS FAIR      45  41  87 SW3       30.67F
$$

COZ069>075-010700-
...SAN LUIS VALLEY/SANGRE DE CRISTO MOUNTAINS...

CITY           SKY/WX    TMP DP  RH WIND       PRES   REMARKS
ALAMOSA        CLOUDY    58  49  72 E6        30.39S
LA VETA PASS   MOCLDY    48  43  81 MISG      30.58S
SAGUACHE       CLOUDY    57  52  82 N3        30.43S
$$

COZ035-036-038>040-010700-
...NORTHERN COLORADO FRONT RANGE...

CITY           SKY/WX    TMP DP  RH WIND       PRES   REMARKS
DENVER INTL AP FAIR      61  54  77 SE13      30.26S
DMNS CITY PARK   N/A     65  54  68 SE6       30.26S
AURORA         PTCLDY    63  54  73 S16G23    30.28F
FRONT RANGE AP NOT AVBL
ERIE MUNI ARPT FAIR      58  52  81 CALM      30.25F
BOULDER MUN AP FAIR      63  55  77 CALM      30.26F
CENTENNIAL     FAIR      62  53  72 S13       30.29F
BROOMFIELD     FAIR      63  54  72 NW6       30.28S
FORT COLLINS   FAIR      61  55  82 CALM      30.27S
LONGMONT       FAIR      64  55  72 N3        30.27F
$$

COZ041-046-047-076>085-087-088-010700-
...PIKES PEAK/PALMER DIVIDE AND SOUTHERN FOOTHILLS...

CITY           SKY/WX    TMP DP  RH WIND       PRES   REMARKS
COLO. SPRINGS  CLOUDY    62  54  74 SE9       30.38F
A. F. ACADEMY  CLOUDY    60  55  84 S7        30.37F
SCHRIEVER AFB  NOT AVBL
ELLICOTT       CLOUDY   N/A N/A N/A SE9       30.36R
FALCON         CLOUDY    57  55  93 S7        30.42S
FORT CARSON    CLOUDY    62  56  81 SE5       30.35S
LIMON          CLOUDY    58  57  97 SE8       30.32F
MONUMENT HILL  CLOUDY    55  54  94 S16       30.40F
TRINIDAD       FAIR      61  50  67 W8        30.30S
$$

COZ042>045-048>051-090-091-010700-
...NORTHEAST COLORADO...

CITY           SKY/WX    TMP DP  RH WIND       PRES   REMARKS
GREELEY ARPT   FAIR      61  55  82 E8        30.27S
AKRON          FAIR      60  58  92 SE15      30.29S
BURLINGTON     CLOUDY    63  61  93 SE9       30.28S
WRAY           CLOUDY    64  64 100 CALM      30.27F
STERLING       CLOUDY    64  61  88 SE3       30.26S
HOLYOKE        MOCLDY    63  61  94 SE6       30.28S
FORT MORGAN    MOCLDY    61  58  90 SE10      30.28F
$$

COZ086-089-092>099-010700-
...SOUTHEAST COLORADO...

CITY           SKY/WX    TMP DP  RH WIND       PRES   REMARKS
PUEBLO         MOCLDY    67  57  70 NE6       30.28F
LA JUNTA       FAIR      63  57  81 E12       30.24F
LAMAR          FAIR      61  58  90 NE7       30.23S
SPRINGFIELD      N/A     63  63 100 S8        30.26S
$$




USA.gov is the U.S. government's official web portal to all federal, state and local government web resources and services.